#�ϑ�����,���ϕ���,���ϕ���,�ő啗��,�ő啗����������,�ő�u�ԕ���,�ő�u�ԕ�����������
#(�N����),(m/s)   ,(16����),(m/s)   ,(16����)        ,(m/s)       ,(16����)            
2015/6/26 0:01,2.2,4,2.2,3,2.7,3
2015/6/26 0:02,2.2,4,2.2,3,2.7,4
2015/6/26 0:03,2.1,3,2.2,3,2.5,3
2015/6/26 0:04,2.1,3,2.1,3,3.8,4
2015/6/26 0:05,2.1,3,2.1,3,3.9,3
2015/6/26 0:06,2.2,3,2.2,3,4.1,4
2015/6/26 0:07,2.3,3,2.3,3,3.8,3
2015/6/26 0:08,2.2,4,2.3,3,3.3,5
2015/6/26 0:09,2.3,3,2.3,3,4.2,3
2015/6/26 0:10,2.4,4,2.4,4,5.1,5
2015/6/26 0:11,2.4,4,2.4,4,2.5,3
2015/6/26 0:12,2.4,4,2.4,4,3.6,3
2015/6/26 0:13,2.6,4,2.6,4,4.1,3
2015/6/26 0:14,2.6,4,2.6,4,4.3,3
2015/6/26 0:15,2.7,4,2.7,4,3.8,3
2015/6/26 0:16,2.6,3,2.7,4,2.9,2
2015/6/26 0:17,2.5,3,2.5,4,3.5,2
2015/6/26 0:18,2.7,3,2.7,4,6.1,3
2015/6/26 0:19,2.7,3,2.7,4,5.4,4
2015/6/26 0:20,2.6,3,2.7,4,3.5,4
2015/6/26 0:21,2.7,3,2.7,4,4.8,3
2015/6/26 0:22,2.8,3,2.8,3,4.7,4
2015/6/26 0:23,2.7,3,2.8,3,3.9,4
2015/6/26 0:24,2.6,3,2.7,3,2.9,4
2015/6/26 0:25,2.6,3,2.6,3,3.1,3
2015/6/26 0:26,2.6,3,2.6,3,2.9,2
2015/6/26 0:27,2.6,3,2.7,3,3.7,3
2015/6/26 0:28,2.5,3,2.6,3,3.7,4
2015/6/26 0:29,2.3,3,2.4,3,3.3,3
2015/6/26 0:30,2.4,3,2.4,3,3.9,3
2015/6/26 0:31,2.3,3,2.4,3,3.2,3
2015/6/26 0:32,2.2,3,2.3,3,3.1,4
2015/6/26 0:33,2.1,3,2.2,3,2.6,4
2015/6/26 0:34,2.1,3,2.1,3,2.9,4
2015/6/26 0:35,2,3,2.1,3,3.7,3
2015/6/26 0:36,2,3,2,3,2.5,4
2015/6/26 0:37,2,3,2,3,2.7,3
2015/6/26 0:38,2,3,2,3,3,5
2015/6/26 0:39,2,3,2,3,3.5,2
2015/6/26 0:40,1.9,4,2,3,3,3
2015/6/26 0:41,1.8,3,1.9,3,2.4,4
2015/6/26 0:42,1.8,3,1.8,3,2.6,2
2015/6/26 0:43,1.8,3,1.8,3,3,3
2015/6/26 0:44,1.9,3,1.9,3,2.6,4
2015/6/26 0:45,1.8,3,1.9,3,2.6,2
2015/6/26 0:46,1.8,3,1.9,3,3.2,2
2015/6/26 0:47,1.8,3,1.8,3,2,3
2015/6/26 0:48,1.7,3,1.8,3,2,3
2015/6/26 0:49,1.6,3,1.7,3,2.1,4
2015/6/26 0:50,1.5,3,1.6,4,1.4,6
2015/6/26 0:51,1.5,3,1.5,3,1.9,3
2015/6/26 0:52,1.5,4,1.5,3,1.6,3
2015/6/26 0:53,1.5,4,1.5,3,3.1,3
2015/6/26 0:54,1.4,4,1.5,3,2.4,4
2015/6/26 0:55,1.5,4,1.5,3,3.2,4
2015/6/26 0:56,1.6,4,1.6,3,3.6,4
2015/6/26 0:57,1.7,4,1.7,3,3.6,3
2015/6/26 0:58,1.8,4,1.8,4,3.2,5
2015/6/26 0:59,1.8,4,1.8,4,3,5
2015/6/26 1:00,1.9,4,1.9,4,3.2,3
2015/6/26 1:01,2.1,4,2.1,4,4.1,5
2015/6/26 1:02,2.2,4,2.2,4,3.9,5
2015/6/26 1:03,2.3,4,2.3,4,3.3,5
2015/6/26 1:04,2.4,4,2.4,4,3.3,5
2015/6/26 1:05,2.4,4,2.4,4,3.2,5
2015/6/26 1:06,2.3,4,2.4,4,2.6,4
2015/6/26 1:07,2.2,4,2.4,4,2.5,3
2015/6/26 1:08,2.1,4,2.2,4,1.6,4
2015/6/26 1:09,2.1,4,2.1,4,3.1,5
2015/6/26 1:10,2,4,2.1,4,2.5,5
2015/6/26 1:11,2.1,4,2.1,4,4.2,3
2015/6/26 1:12,2,4,2.1,4,3.8,3
2015/6/26 1:13,1.9,4,2,4,2.7,6
2015/6/26 1:14,1.8,4,1.9,4,2.6,3
2015/6/26 1:15,1.8,4,1.8,4,2.9,4
2015/6/26 1:16,1.8,4,1.8,4,2.9,3
2015/6/26 1:17,1.9,4,1.9,4,3,4
2015/6/26 1:18,1.9,4,1.9,4,1.5,4
2015/6/26 1:19,1.8,4,1.9,4,2.1,4
2015/6/26 1:20,1.8,4,1.8,4,2.2,5
2015/6/26 1:21,1.6,4,1.8,4,1.9,3
2015/6/26 1:22,1.6,3,1.6,4,2.4,3
2015/6/26 1:23,1.5,3,1.5,4,2.4,4
2015/6/26 1:24,1.6,3,1.6,4,2.5,3
2015/6/26 1:25,1.5,3,1.6,4,3.1,3
2015/6/26 1:26,1.5,3,1.5,4,2.7,4
2015/6/26 1:27,1.5,3,1.5,4,3.1,3
2015/6/26 1:28,1.6,3,1.6,4,2.7,3
2015/6/26 1:29,1.7,3,1.7,4,2.9,3
2015/6/26 1:30,1.7,3,1.7,4,2.7,3
2015/6/26 1:31,1.8,3,1.8,3,2.5,2
2015/6/26 1:32,1.8,3,1.8,3,2.5,2
2015/6/26 1:33,1.8,2,1.8,3,2.6,3
2015/6/26 1:34,1.8,2,1.8,3,2.7,3
2015/6/26 1:35,1.8,2,1.8,3,3.6,3
2015/6/26 1:36,1.9,2,1.9,2,3,3
2015/6/26 1:37,1.9,2,1.9,2,3.1,3
2015/6/26 1:38,1.8,2,1.9,2,2.7,3
2015/6/26 1:39,1.9,2,1.9,2,3.3,3
2015/6/26 1:40,2,2,2,2,3.3,3
2015/6/26 1:41,1.9,2,2,2,3.1,3
2015/6/26 1:42,2,2,2,2,3.5,3
2015/6/26 1:43,2.1,3,2.1,3,3.6,2
2015/6/26 1:44,2.2,3,2.2,3,3.3,4
2015/6/26 1:45,2.2,3,2.2,3,3.9,3
2015/6/26 1:46,2.2,3,2.2,3,3.1,3
2015/6/26 1:47,2.3,3,2.3,3,3.5,3
2015/6/26 1:48,2.3,3,2.3,3,3.1,4
2015/6/26 1:49,2.3,3,2.4,3,3.2,2
2015/6/26 1:50,2.3,3,2.3,3,3.1,3
2015/6/26 1:51,2.3,3,2.3,3,2.7,3
2015/6/26 1:52,2.3,3,2.3,3,3,3
2015/6/26 1:53,2.3,3,2.3,3,4.3,3
2015/6/26 1:54,2.3,3,2.3,3,3.1,3
2015/6/26 1:55,2.2,3,2.3,3,3.3,2
2015/6/26 1:56,2.2,3,2.2,3,3,2
2015/6/26 1:57,2.2,3,2.2,3,3.8,3
2015/6/26 1:58,2.1,3,2.2,3,4.3,3
2015/6/26 1:59,2.1,3,2.2,3,3.5,2
2015/6/26 2:00,2.1,2,2.1,3,3,2
2015/6/26 2:01,2.2,2,2.2,3,3.7,3
2015/6/26 2:02,2.2,2,2.2,3,3.6,3
2015/6/26 2:03,2,2,2.2,3,3,1
2015/6/26 2:04,2,2,2.1,3,3,3
2015/6/26 2:05,2,2,2,3,3.3,3
2015/6/26 2:06,2,2,2,3,3.1,3
2015/6/26 2:07,1.9,2,2,3,3.2,2
2015/6/26 2:08,1.9,2,1.9,3,3.3,3
2015/6/26 2:09,1.8,2,1.9,2,3.2,3
2015/6/26 2:10,1.8,2,1.8,2,3,2
2015/6/26 2:11,1.7,2,1.8,2,2.6,2
2015/6/26 2:12,1.6,2,1.6,2,2.4,2
2015/6/26 2:13,1.7,2,1.7,2,3.8,3
2015/6/26 2:14,1.6,2,1.7,2,2.4,1
2015/6/26 2:15,1.7,2,1.7,2,3.6,3
2015/6/26 2:16,1.8,2,1.8,2,3.7,3
2015/6/26 2:17,1.7,2,1.8,2,2.1,3
2015/6/26 2:18,1.7,2,1.7,2,3,3
2015/6/26 2:19,1.7,2,1.7,2,3.2,3
2015/6/26 2:20,1.9,2,1.9,2,3.9,2
2015/6/26 2:21,1.9,2,1.9,2,3.8,2
2015/6/26 2:22,2,2,2,2,2.6,2
2015/6/26 2:23,2,2,2,2,3.7,3
2015/6/26 2:24,2.1,2,2.1,2,3.6,3
2015/6/26 2:25,2.1,2,2.1,2,3.1,3
2015/6/26 2:26,2,2,2.1,2,2.7,3
2015/6/26 2:27,2.1,2,2.1,2,2.4,2
2015/6/26 2:28,2.1,2,2.1,2,1.4,1
2015/6/26 2:29,2,2,2,2,2.1,4
2015/6/26 2:30,1.9,2,2,2,2.9,3
2015/6/26 2:31,1.8,2,1.9,2,2.6,3
2015/6/26 2:32,1.8,2,1.8,2,2.1,2
2015/6/26 2:33,1.7,2,1.8,2,3,3
2015/6/26 2:34,1.6,2,1.7,2,3,4
2015/6/26 2:35,1.6,2,1.6,2,3.6,3
2015/6/26 2:36,1.6,2,1.6,2,3.2,2
2015/6/26 2:37,1.6,2,1.6,2,2.6,2
2015/6/26 2:38,1.7,2,1.7,2,3.2,4
2015/6/26 2:39,1.8,2,1.8,2,3.2,3
2015/6/26 2:40,1.8,2,1.8,2,3.6,3
2015/6/26 2:41,1.9,2,1.9,2,2.7,2
2015/6/26 2:42,2,2,2,2,3,3
2015/6/26 2:43,2,2,2,2,3.2,3
2015/6/26 2:44,2.1,2,2.1,2,3.3,2
2015/6/26 2:45,2.2,2,2.2,2,4.4,3
2015/6/26 2:46,2.2,2,2.2,2,3.5,2
2015/6/26 2:47,2.3,2,2.3,2,2.9,2
2015/6/26 2:48,2.4,3,2.4,3,3.9,3
2015/6/26 2:49,2.4,3,2.4,3,3.1,1
2015/6/26 2:50,2.4,3,2.4,3,3.9,3
2015/6/26 2:51,2.4,3,2.4,3,2.6,2
2015/6/26 2:52,2.3,3,2.4,3,2,2
2015/6/26 2:53,2.2,2,2.3,3,2.2,16
2015/6/26 2:54,2.1,2,2.2,3,2.1,16
2015/6/26 2:55,1.9,2,2,3,3.1,3
2015/6/26 2:56,1.9,2,1.9,3,4.5,3
2015/6/26 2:57,2,2,2,3,3.9,2
2015/6/26 2:58,1.9,2,2,3,3.6,3
2015/6/26 2:59,1.9,2,1.9,3,3.1,3
2015/6/26 3:00,1.8,2,1.9,3,2.6,3
2015/6/26 3:01,1.7,2,1.8,3,2.2,2
2015/6/26 3:02,1.8,2,1.8,3,3.1,1
2015/6/26 3:03,1.9,2,1.9,2,3.9,2
2015/6/26 3:04,2,2,2,2,4.4,3
2015/6/26 3:05,2,2,2,2,4.7,1
2015/6/26 3:06,2.1,2,2.1,2,4.2,3
2015/6/26 3:07,2.1,2,2.1,2,3,2
2015/6/26 3:08,2,2,2,2,3,1
2015/6/26 3:09,2,2,2,2,3.1,3
2015/6/26 3:10,2,2,2,2,3.3,3
2015/6/26 3:11,2.1,2,2.1,2,3.2,3
2015/6/26 3:12,2.1,2,2.1,2,3.3,3
2015/6/26 3:13,2.1,2,2.1,2,3.6,2
2015/6/26 3:14,2.1,2,2.1,2,3.1,4
2015/6/26 3:15,2,2,2,2,3.9,2
2015/6/26 3:16,2,2,2,2,3.9,4
2015/6/26 3:17,2.1,2,2.1,2,4.3,3
2015/6/26 3:18,2.2,2,2.2,2,4.1,2
2015/6/26 3:19,2.3,3,2.3,3,3.7,3
2015/6/26 3:20,2.4,3,2.4,3,4.4,4
2015/6/26 3:21,2.4,3,2.5,3,3.7,4
2015/6/26 3:22,2.5,3,2.5,3,4.5,3
2015/6/26 3:23,2.5,3,2.5,3,4.3,2
2015/6/26 3:24,2.7,3,2.7,3,4.9,3
2015/6/26 3:25,2.7,3,2.8,3,4.2,3
2015/6/26 3:26,2.8,3,2.9,3,5.1,3
2015/6/26 3:27,2.8,3,2.9,3,3.6,3
2015/6/26 3:28,2.7,3,2.8,3,3.2,3
2015/6/26 3:29,2.7,3,2.7,3,3.6,3
2015/6/26 3:30,2.7,3,2.7,3,4.4,3
2015/6/26 3:31,2.7,3,2.7,3,3.6,3
2015/6/26 3:32,2.7,2,2.7,3,4.3,3
2015/6/26 3:33,2.6,3,2.7,3,4.1,3
2015/6/26 3:34,2.6,2,2.6,3,5.2,1
2015/6/26 3:35,2.7,2,2.7,3,5.7,3
2015/6/26 3:36,2.5,2,2.7,3,3.7,3
2015/6/26 3:37,2.5,2,2.5,3,4.1,3
2015/6/26 3:38,2.5,2,2.5,3,4.8,2
2015/6/26 3:39,2.5,3,2.5,3,4.2,2
2015/6/26 3:40,2.4,2,2.5,2,3.8,3
2015/6/26 3:41,2.4,2,2.4,3,2.7,3
2015/6/26 3:42,2.5,2,2.5,3,5.5,3
2015/6/26 3:43,2.5,2,2.5,2,3.1,3
2015/6/26 3:44,2.4,2,2.5,2,3.9,3
2015/6/26 3:45,2.3,2,2.4,3,3.2,4
2015/6/26 3:46,2.2,2,2.3,2,1.8,3
2015/6/26 3:47,2.2,2,2.2,2,3,2
2015/6/26 3:48,2.1,2,2.2,2,3.5,3
2015/6/26 3:49,2.1,2,2.1,3,3.6,2
2015/6/26 3:50,2.2,2,2.2,2,5.4,3
2015/6/26 3:51,2.4,2,2.4,2,5.6,3
2015/6/26 3:52,2.3,2,2.4,2,4.1,2
2015/6/26 3:53,2.4,2,2.4,2,4.2,3
2015/6/26 3:54,2.4,2,2.4,2,3.9,3
2015/6/26 3:55,2.5,3,2.5,2,4.7,3
2015/6/26 3:56,2.7,3,2.7,3,3.6,4
2015/6/26 3:57,2.8,3,2.8,3,5,3
2015/6/26 3:58,2.9,3,2.9,3,6.3,3
2015/6/26 3:59,3,3,3,3,6.8,3
2015/6/26 4:00,3,3,3.1,3,4.4,3
2015/6/26 4:01,3,3,3,3,5.2,3
2015/6/26 4:02,3.2,3,3.2,3,4.8,3
2015/6/26 4:03,3.2,3,3.2,3,4.4,3
2015/6/26 4:04,3.2,3,3.2,3,3.9,3
2015/6/26 4:05,3,3,3.2,3,4.4,2
2015/6/26 4:06,3,3,3.1,3,3.8,4
2015/6/26 4:07,2.9,3,3,3,3.9,1
2015/6/26 4:08,2.9,3,2.9,3,4.3,3
2015/6/26 4:09,2.7,3,2.8,3,3.8,2
2015/6/26 4:10,2.6,3,2.7,3,4.2,3
2015/6/26 4:11,2.6,3,2.7,3,4.8,3
2015/6/26 4:12,2.5,3,2.6,3,3.9,3
2015/6/26 4:13,2.5,2,2.5,3,3.3,3
2015/6/26 4:14,2.6,3,2.6,3,4.7,2
2015/6/26 4:15,2.7,3,2.7,3,4.2,3
2015/6/26 4:16,2.7,2,2.7,3,5,3
2015/6/26 4:17,2.7,2,2.8,3,3.6,3
2015/6/26 4:18,2.6,2,2.7,3,3.9,2
2015/6/26 4:19,2.6,2,2.6,2,4.2,2
2015/6/26 4:20,2.6,2,2.6,2,4.2,3
2015/6/26 4:21,2.5,2,2.6,2,4.3,3
2015/6/26 4:22,2.5,2,2.5,2,4.2,2
2015/6/26 4:23,2.5,2,2.5,2,3.5,2
2015/6/26 4:24,2.4,2,2.5,2,3.3,1
2015/6/26 4:25,2.3,2,2.4,2,4.1,2
2015/6/26 4:26,2.2,2,2.3,2,3,3
2015/6/26 4:27,2.3,2,2.3,2,4.4,1
2015/6/26 4:28,2.4,2,2.5,2,4.9,3
2015/6/26 4:29,2.4,2,2.5,2,3.2,1
2015/6/26 4:30,2.4,2,2.4,2,4.2,1
2015/6/26 4:31,2.4,2,2.4,2,4.4,3
2015/6/26 4:32,2.3,2,2.4,2,3.9,3
2015/6/26 4:33,2.4,2,2.4,2,4.7,3
2015/6/26 4:34,2.6,2,2.6,2,5.7,3
2015/6/26 4:35,2.5,2,2.6,2,2.9,3
2015/6/26 4:36,2.6,2,2.6,2,4.1,3
2015/6/26 4:37,2.6,2,2.6,2,3.3,3
2015/6/26 4:38,2.6,2,2.6,2,4.8,2
2015/6/26 4:39,2.6,2,2.6,2,4.8,3
2015/6/26 4:40,2.7,3,2.7,2,4.3,4
2015/6/26 4:41,2.6,2,2.7,2,3.7,3
2015/6/26 4:42,2.6,3,2.6,2,3.9,3
2015/6/26 4:43,2.5,3,2.7,2,3.3,3
2015/6/26 4:44,2.4,2,2.5,2,3.3,3
2015/6/26 4:45,2.5,3,2.5,2,3.9,3
2015/6/26 4:46,2.4,2,2.5,2,4.3,3
2015/6/26 4:47,2.4,2,2.5,2,4.3,3
2015/6/26 4:48,2.3,2,2.4,2,3.9,1
2015/6/26 4:49,2.3,2,2.4,2,3.9,3
2015/6/26 4:50,2.3,2,2.3,3,5.1,3
2015/6/26 4:51,2.3,2,2.3,3,4.3,3
2015/6/26 4:52,2.3,2,2.3,3,5.1,3
2015/6/26 4:53,2.4,2,2.4,3,4.2,3
2015/6/26 4:54,2.5,2,2.5,3,4.5,2
2015/6/26 4:55,2.5,2,2.5,2,4.8,3
2015/6/26 4:56,2.6,2,2.6,2,5.1,3
2015/6/26 4:57,2.9,3,2.9,3,5.4,3
2015/6/26 4:58,2.9,3,2.9,3,4.2,2
2015/6/26 4:59,2.9,3,2.9,3,3.9,3
2015/6/26 5:00,2.8,3,2.9,3,3.7,3
2015/6/26 5:01,2.8,3,2.8,3,3,3
2015/6/26 5:02,2.8,3,2.8,3,3.3,4
2015/6/26 5:03,2.7,3,2.7,3,3,2
2015/6/26 5:04,2.6,3,2.7,3,3.7,2
2015/6/26 5:05,2.5,3,2.6,3,3,3
2015/6/26 5:06,2.4,2,2.5,3,3,2
2015/6/26 5:07,2.3,2,2.4,3,4.9,3
2015/6/26 5:08,2.2,2,2.2,3,4.8,2
2015/6/26 5:09,2.2,2,2.2,3,3.1,2
2015/6/26 5:10,2.2,2,2.2,3,4.3,3
2015/6/26 5:11,2.2,2,2.3,3,4.1,3
2015/6/26 5:12,2.4,2,2.4,3,6.3,3
2015/6/26 5:13,2.5,2,2.5,3,5.4,3
2015/6/26 5:14,2.7,2,2.7,2,6,3
2015/6/26 5:15,2.8,2,2.8,2,4.3,3
2015/6/26 5:16,2.9,2,2.9,2,5.5,3
2015/6/26 5:17,2.9,2,2.9,2,4.3,3
2015/6/26 5:18,3,2,3,2,5.7,2
2015/6/26 5:19,3.3,3,3.3,3,5.1,3
2015/6/26 5:20,3.3,3,3.3,3,5.5,3
2015/6/26 5:21,3.4,3,3.4,3,4.4,4
2015/6/26 5:22,3.1,3,3.4,3,3.8,2
2015/6/26 5:23,3.1,3,3.1,3,4.4,3
2015/6/26 5:24,2.9,3,3.1,3,4.5,2
2015/6/26 5:25,3,3,3,3,5,4
2015/6/26 5:26,3,3,3,3,4.2,3
2015/6/26 5:27,3,3,3,3,4.7,3
2015/6/26 5:28,2.9,3,3,3,4.8,3
2015/6/26 5:29,2.8,3,2.9,3,4.9,4
2015/6/26 5:30,2.8,3,2.8,3,3.9,2
2015/6/26 5:31,2.9,3,2.9,3,4.8,3
2015/6/26 5:32,3,3,3,3,4.3,3
2015/6/26 5:33,3,3,3,3,3.9,3
2015/6/26 5:34,3,3,3,3,3.5,4
2015/6/26 5:35,2.9,3,3,3,6.3,3
2015/6/26 5:36,3,3,3,3,6.3,3
2015/6/26 5:37,3,3,3,3,4.1,3
2015/6/26 5:38,3,3,3,3,4.3,3
2015/6/26 5:39,3,3,3.1,3,4.4,4
2015/6/26 5:40,3,3,3.1,3,4.4,3
2015/6/26 5:41,3,3,3,3,4.3,3
2015/6/26 5:42,3,3,3,3,3.7,2
2015/6/26 5:43,2.8,3,2.9,3,3.8,2
2015/6/26 5:44,2.8,3,2.9,3,4.2,3
2015/6/26 5:45,2.8,3,2.8,3,4.2,3
2015/6/26 5:46,2.7,2,2.8,3,3.9,3
2015/6/26 5:47,2.7,2,2.7,3,4.4,2
2015/6/26 5:48,2.6,2,2.7,3,3.9,3
2015/6/26 5:49,2.5,2,2.6,3,3.6,2
2015/6/26 5:50,2.6,2,2.6,3,3.9,2
2015/6/26 5:51,2.6,2,2.6,3,4.4,4
2015/6/26 5:52,2.4,2,2.6,3,3.5,5
2015/6/26 5:53,2.4,2,2.4,3,3,2
2015/6/26 5:54,2.4,2,2.4,3,3.7,2
2015/6/26 5:55,2.4,2,2.5,3,4.9,3
2015/6/26 5:56,2.4,2,2.4,2,5,2
2015/6/26 5:57,2.6,2,2.6,2,6,3
2015/6/26 5:58,2.6,2,2.6,2,4.5,3
2015/6/26 5:59,2.7,3,2.7,2,4.5,4
2015/6/26 6:00,2.8,3,2.8,3,5.4,3
2015/6/26 6:01,2.9,3,2.9,3,5.1,3
2015/6/26 6:02,3.2,3,3.2,3,5.2,3
2015/6/26 6:03,3.3,3,3.3,3,4.8,3
2015/6/26 6:04,3.5,3,3.5,3,5.4,4
2015/6/26 6:05,3.6,3,3.6,3,5.2,5
2015/6/26 6:06,3.8,3,3.8,3,6,3
2015/6/26 6:07,3.8,3,3.8,3,5.6,3
2015/6/26 6:08,3.8,3,3.8,3,5.6,3
2015/6/26 6:09,3.9,3,3.9,3,6,3
2015/6/26 6:10,3.9,3,3.9,3,5.6,4
2015/6/26 6:11,3.9,3,3.9,3,4.7,2
2015/6/26 6:12,3.8,3,3.9,3,4.3,3
2015/6/26 6:13,3.9,3,3.9,3,6.2,4
2015/6/26 6:14,3.9,3,3.9,3,5.2,3
2015/6/26 6:15,3.8,3,3.8,3,4.8,4
2015/6/26 6:16,3.6,3,3.8,3,4.2,4
2015/6/26 6:17,3.5,3,3.6,3,4.1,4
2015/6/26 6:18,3.5,3,3.5,3,5.4,2
2015/6/26 6:19,3.3,3,3.5,3,5.1,3
2015/6/26 6:20,3.2,3,3.3,3,4.7,4
2015/6/26 6:21,3.1,3,3.2,3,5.2,3
2015/6/26 6:22,3.2,3,3.2,3,5.8,3
2015/6/26 6:23,3,3,3.2,3,4.5,3
2015/6/26 6:24,3,3,3.1,3,6.3,3
2015/6/26 6:25,3.1,3,3.1,3,7,3
2015/6/26 6:26,3.1,3,3.1,3,4.7,3
2015/6/26 6:27,3,2,3.1,3,3.9,2
2015/6/26 6:28,3,3,3.1,3,5,3
2015/6/26 6:29,3,3,3,3,3.9,2
2015/6/26 6:30,2.9,3,2.9,3,4.4,3
2015/6/26 6:31,2.9,3,3,3,4.7,3
2015/6/26 6:32,2.8,3,2.9,3,4.9,4
2015/6/26 6:33,2.8,3,2.8,3,4.1,3
2015/6/26 6:34,2.8,3,2.9,3,5.2,3
2015/6/26 6:35,2.7,3,2.9,3,3.2,2
2015/6/26 6:36,2.8,3,2.8,3,5.4,3
2015/6/26 6:37,2.9,3,2.9,3,4.2,3
2015/6/26 6:38,2.7,3,2.9,3,3.3,3
2015/6/26 6:39,2.7,3,2.8,3,3.3,2
2015/6/26 6:40,2.7,3,2.7,3,2.6,3
2015/6/26 6:41,2.6,3,2.6,3,3.7,3
2015/6/26 6:42,2.5,3,2.6,3,3.5,2
2015/6/26 6:43,2.5,2,2.5,3,3.9,3
2015/6/26 6:44,2.4,2,2.5,3,4.3,3
2015/6/26 6:45,2.4,2,2.4,3,3.7,3
2015/6/26 6:46,2.2,2,2.4,3,3.6,2
2015/6/26 6:47,2.1,2,2.2,3,3.3,3
2015/6/26 6:48,2.1,2,2.1,3,3,2
2015/6/26 6:49,2.1,2,2.1,3,3.3,3
2015/6/26 6:50,2.1,2,2.1,3,2.9,3
2015/6/26 6:51,2.2,2,2.2,3,3.9,3
2015/6/26 6:52,2.2,2,2.2,3,3,2
2015/6/26 6:53,2.3,2,2.3,2,5.1,3
2015/6/26 6:54,2.2,2,2.3,2,3.5,3
2015/6/26 6:55,2.2,2,2.2,2,3.2,4
2015/6/26 6:56,2.3,2,2.3,2,3.9,4
2015/6/26 6:57,2.4,3,2.4,3,3.9,3
2015/6/26 6:58,2.5,3,2.5,3,4.1,2
2015/6/26 6:59,2.6,3,2.6,3,4.7,3
2015/6/26 7:00,2.7,3,2.7,3,3.9,3
2015/6/26 7:01,2.6,3,2.7,3,3.5,4
2015/6/26 7:02,2.7,3,2.7,3,3.6,4
2015/6/26 7:03,2.6,3,2.7,3,3.2,3
2015/6/26 7:04,2.5,3,2.5,3,3.3,2
2015/6/26 7:05,2.4,3,2.5,3,3,4
2015/6/26 7:06,2.4,3,2.4,3,3.7,3
2015/6/26 7:07,2.3,3,2.4,3,3.5,4
2015/6/26 7:08,2.2,3,2.3,3,2.5,3
2015/6/26 7:09,2.1,3,2.1,3,4.9,2
2015/6/26 7:10,2.1,3,2.1,3,4.4,4
2015/6/26 7:11,2.1,3,2.1,3,4.9,2
2015/6/26 7:12,2.2,3,2.2,3,5,3
2015/6/26 7:13,2.3,3,2.3,3,4.1,3
2015/6/26 7:14,2.4,3,2.4,3,4.4,3
2015/6/26 7:15,2.5,3,2.5,3,4.2,3
2015/6/26 7:16,2.6,3,2.6,3,6.1,3
2015/6/26 7:17,2.8,3,2.8,3,5.6,4
2015/6/26 7:18,3,3,3,3,4.9,3
2015/6/26 7:19,3.2,3,3.2,3,6.2,4
2015/6/26 7:20,3.2,3,3.2,3,5.4,3
2015/6/26 7:21,3.3,3,3.3,3,5.2,4
2015/6/26 7:22,3.2,3,3.3,3,4.2,5
2015/6/26 7:23,3.2,3,3.2,3,4.8,4
2015/6/26 7:24,3.2,3,3.2,3,4.4,4
2015/6/26 7:25,3.1,3,3.2,3,3.2,3
2015/6/26 7:26,3.1,3,3.2,3,5.5,3
2015/6/26 7:27,3.3,3,3.3,3,7.8,4
2015/6/26 7:28,3.3,3,3.4,3,6.3,3
2015/6/26 7:29,3.3,3,3.4,3,5.8,5
2015/6/26 7:30,3.2,3,3.3,3,4.2,3
2015/6/26 7:31,3.1,3,3.2,3,4.2,3
2015/6/26 7:32,3.2,3,3.2,3,4.1,4
2015/6/26 7:33,3.3,4,3.3,3,5.2,4
2015/6/26 7:34,3.4,4,3.4,3,6.1,3
2015/6/26 7:35,3.6,4,3.6,4,7,3
2015/6/26 7:36,3.6,4,3.7,4,5,4
2015/6/26 7:37,3.5,4,3.6,4,6.1,5
2015/6/26 7:38,3.4,4,3.5,4,5.4,5
2015/6/26 7:39,3.4,4,3.4,4,4.8,3
2015/6/26 7:40,3.4,4,3.4,4,4.4,5
2015/6/26 7:41,3.3,4,3.4,4,2.5,3
2015/6/26 7:42,3,4,3.3,4,1.4,5
2015/6/26 7:43,2.8,4,3,4,1.9,4
2015/6/26 7:44,2.4,4,2.8,4,1.5,2
2015/6/26 7:45,2.2,4,2.4,4,3.5,2
2015/6/26 7:46,2.1,4,2.2,4,3,2
2015/6/26 7:47,1.8,4,2,4,1.4,2
2015/6/26 7:48,1.5,3,1.7,4,2.7,2
2015/6/26 7:49,1.3,3,1.5,4,2.6,2
2015/6/26 7:50,1.3,3,1.3,4,2.7,3
2015/6/26 7:51,1.3,3,1.3,4,2.5,2
2015/6/26 7:52,1.5,3,1.5,4,3.8,3
2015/6/26 7:53,1.7,3,1.7,4,3.8,3
2015/6/26 7:54,1.9,3,1.9,4,3.3,4
2015/6/26 7:55,2,3,2,4,3.9,3
2015/6/26 7:56,2.1,3,2.1,3,6.1,3
2015/6/26 7:57,2.3,3,2.3,3,5.4,5
2015/6/26 7:58,2.4,3,2.4,3,4.1,3
2015/6/26 7:59,2.4,3,2.4,3,3.2,3
2015/6/26 8:00,2.5,3,2.5,3,3.3,3
2015/6/26 8:01,2.5,3,2.5,3,2.9,2
2015/6/26 8:02,2.5,3,2.6,3,3.5,3
2015/6/26 8:03,2.5,3,2.6,3,3.6,2
2015/6/26 8:04,2.4,3,2.5,3,3.9,3
2015/6/26 8:05,2.4,3,2.4,3,3.9,5
2015/6/26 8:06,2.4,3,2.4,3,3.6,2
2015/6/26 8:07,2.4,3,2.4,3,5.1,4
2015/6/26 8:08,2.5,3,2.5,3,4.8,3
2015/6/26 8:09,2.5,3,2.5,3,3.8,2
2015/6/26 8:10,2.6,3,2.6,3,3.5,3
2015/6/26 8:11,2.7,3,2.7,3,4.2,3
2015/6/26 8:12,2.8,3,2.8,3,5.1,3
2015/6/26 8:13,3,3,3,3,5.6,3
2015/6/26 8:14,3.1,3,3.1,3,4.3,3
2015/6/26 8:15,3,3,3.1,3,3.8,3
2015/6/26 8:16,3.2,3,3.2,3,4.7,3
2015/6/26 8:17,3.1,3,3.2,3,3.8,2
2015/6/26 8:18,3,3,3,3,5.1,3
2015/6/26 8:19,3.2,3,3.2,3,5.1,3
2015/6/26 8:20,3.3,3,3.3,3,4.9,3
2015/6/26 8:21,3.2,3,3.3,3,3.9,3
2015/6/26 8:22,3.1,3,3.2,3,4.4,3
2015/6/26 8:23,3.1,3,3.1,3,4.2,3
2015/6/26 8:24,3,3,3.1,3,3.7,3
2015/6/26 8:25,3,3,3,3,4.2,2
2015/6/26 8:26,2.8,3,3,3,3.3,3
2015/6/26 8:27,2.7,3,2.8,3,3.5,2
2015/6/26 8:28,2.7,3,2.7,3,3.3,3
2015/6/26 8:29,2.6,3,2.7,3,3.8,2
2015/6/26 8:30,2.5,3,2.6,3,3.9,3
2015/6/26 8:31,2.5,3,2.5,3,3.8,3
2015/6/26 8:32,2.4,3,2.5,3,2.4,2
2015/6/26 8:33,2.3,3,2.4,3,3.7,3
2015/6/26 8:34,2.4,3,2.4,3,6.1,3
2015/6/26 8:35,2.4,3,2.4,3,3.8,3
2015/6/26 8:36,2.6,3,2.6,3,3.9,3
2015/6/26 8:37,2.7,3,2.7,3,3.9,5
2015/6/26 8:38,2.7,3,2.7,3,4.3,5
2015/6/26 8:39,2.6,3,2.7,3,3.2,3
2015/6/26 8:40,2.5,3,2.6,3,3.6,3
2015/6/26 8:41,2.5,3,2.5,3,3,4
2015/6/26 8:42,2.5,3,2.5,3,2.7,3
2015/6/26 8:43,2.6,3,2.6,3,4.4,4
2015/6/26 8:44,2.6,3,2.6,3,4.7,3
2015/6/26 8:45,2.8,4,2.8,3,8.3,4
2015/6/26 8:46,2.7,4,2.8,3,4.2,3
2015/6/26 8:47,2.8,3,2.8,3,4.7,3
2015/6/26 8:48,3,3,3,3,6,3
2015/6/26 8:49,3.2,3,3.2,3,5.2,3
2015/6/26 8:50,3.1,3,3.2,3,3.6,3
2015/6/26 8:51,3.2,3,3.2,3,4.4,3
2015/6/26 8:52,3.4,3,3.4,3,5.5,3
2015/6/26 8:53,3.5,3,3.5,3,6.5,3
2015/6/26 8:54,3.5,4,3.6,3,5.1,5
2015/6/26 8:55,3.3,4,3.5,3,5.1,2
2015/6/26 8:56,3.4,4,3.4,3,5.6,3
2015/6/26 8:57,3.4,4,3.5,3,6,5
2015/6/26 8:58,3.2,4,3.3,3,4.9,4
2015/6/26 8:59,3.2,4,3.2,3,6,5
2015/6/26 9:00,3.4,4,3.4,3,5.6,3
2015/6/26 9:01,3.5,4,3.5,3,5.2,4
2015/6/26 9:02,3.4,4,3.5,3,4.2,3
2015/6/26 9:03,3.3,4,3.4,3,6.4,4
2015/6/26 9:04,3.3,4,3.4,4,5.7,4
2015/6/26 9:05,3.4,4,3.4,4,4.8,3
2015/6/26 9:06,3.4,4,3.4,4,4.3,4
2015/6/26 9:07,3.3,4,3.3,4,3.9,3
2015/6/26 9:08,3.3,4,3.4,4,3.9,3
2015/6/26 9:09,3.2,4,3.3,4,4.7,3
2015/6/26 9:10,3.2,4,3.2,4,4.7,4
2015/6/26 9:11,3,3,3.1,4,3.9,2
2015/6/26 9:12,3.1,3,3.1,4,5.1,2
2015/6/26 9:13,3.1,3,3.2,4,5.1,3
2015/6/26 9:14,3,4,3.1,4,3.1,4
2015/6/26 9:15,2.8,4,2.9,4,4.3,4
2015/6/26 9:16,2.9,4,2.9,4,5.4,4
2015/6/26 9:17,3,4,3,4,5.5,3
2015/6/26 9:18,3.2,4,3.2,4,5.7,3
2015/6/26 9:19,3.2,4,3.2,4,5.4,3
2015/6/26 9:20,3.3,4,3.3,4,5.8,3
2015/6/26 9:21,3.6,4,3.6,4,7.1,3
2015/6/26 9:22,3.6,4,3.6,4,4.9,3
2015/6/26 9:23,3.5,4,3.5,4,4.9,3
2015/6/26 9:24,3.8,3,3.8,3,6.3,4
2015/6/26 9:25,3.9,3,3.9,3,6.3,4
2015/6/26 9:26,4,3,4,3,6.2,3
2015/6/26 9:27,3.9,3,4.1,3,5.7,2
2015/6/26 9:28,3.8,3,3.9,3,4.3,3
2015/6/26 9:29,3.7,3,3.8,3,5.1,3
2015/6/26 9:30,3.5,3,3.7,3,4.2,3
2015/6/26 9:31,3.4,4,3.5,3,5.7,5
2015/6/26 9:32,3.3,4,3.4,3,3.7,3
2015/6/26 9:33,3.3,4,3.4,3,4.1,5
2015/6/26 9:34,3.2,4,3.3,3,4.7,5
2015/6/26 9:35,3.1,4,3.2,3,5.1,3
2015/6/26 9:36,2.9,4,3.1,3,4.9,2
2015/6/26 9:37,3,4,3,3,6,5
2015/6/26 9:38,3.1,4,3.1,3,7.2,4
2015/6/26 9:39,3.2,4,3.2,3,5.4,2
2015/6/26 9:40,3.4,4,3.4,3,7,3
2015/6/26 9:41,3.4,3,3.4,4,5.7,3
2015/6/26 9:42,3.4,3,3.4,4,4.8,3
2015/6/26 9:43,3.4,3,3.4,4,4.2,4
2015/6/26 9:44,3.4,3,3.4,4,4.5,4
2015/6/26 9:45,3.5,3,3.5,3,6.4,3
2015/6/26 9:46,3.6,3,3.6,3,6.7,3
2015/6/26 9:47,3.7,3,3.7,3,4.9,2
2015/6/26 9:48,3.5,3,3.7,3,4.2,3
2015/6/26 9:49,3.3,3,3.5,3,2.9,3
2015/6/26 9:50,3.1,3,3.3,3,3.5,3
2015/6/26 9:51,3,3,3.1,3,4.3,5
2015/6/26 9:52,3,4,3,3,5,4
2015/6/26 9:53,3.1,4,3.1,3,5.1,2
2015/6/26 9:54,3.2,4,3.2,3,4.8,3
2015/6/26 9:55,3.1,4,3.1,3,5.5,3
2015/6/26 9:56,3.1,4,3.1,3,6.2,4
2015/6/26 9:57,3.1,4,3.1,3,6.1,3
2015/6/26 9:58,3.3,4,3.3,3,7,4
2015/6/26 9:59,3.6,4,3.6,4,6.8,3
2015/6/26 10:00,3.8,3,3.8,3,7.6,3
2015/6/26 10:01,4,3,4,3,7.2,3
2015/6/26 10:02,4.1,3,4.1,3,6.4,4
2015/6/26 10:03,4.1,3,4.2,3,5.1,5
2015/6/26 10:04,4.1,3,4.1,3,6.1,3
2015/6/26 10:05,4.2,3,4.2,3,6.3,3
2015/6/26 10:06,4.2,3,4.2,3,6,2
2015/6/26 10:07,4.2,3,4.3,3,6.5,4
2015/6/26 10:08,4.1,3,4.2,3,4.1,3
2015/6/26 10:09,3.9,3,4.1,3,5.1,3
2015/6/26 10:10,3.8,3,4,3,4.7,3
2015/6/26 10:11,3.5,3,3.8,3,3.2,4
2015/6/26 10:12,3.2,3,3.5,3,2.7,2
2015/6/26 10:13,3.2,3,3.2,3,3.9,2
2015/6/26 10:14,3.2,3,3.2,3,5.5,3
2015/6/26 10:15,3.1,3,3.2,3,4.7,4
2015/6/26 10:16,3,3,3.1,3,4.1,5
2015/6/26 10:17,2.9,3,3,3,4.5,4
2015/6/26 10:18,2.9,3,2.9,3,5.1,2
2015/6/26 10:19,3,3,3,3,4.3,3
2015/6/26 10:20,3,3,3,3,5.4,3
2015/6/26 10:21,3.1,3,3.1,3,4.2,2
2015/6/26 10:22,3.3,3,3.3,3,4.9,3
2015/6/26 10:23,3.4,3,3.4,3,5.2,3
2015/6/26 10:24,3.4,3,3.4,3,4.9,1
2015/6/26 10:25,3.4,3,3.4,3,5.1,3
2015/6/26 10:26,3.4,3,3.4,3,5.2,3
2015/6/26 10:27,3.4,3,3.4,3,5.8,2
2015/6/26 10:28,3.4,3,3.4,3,4.1,3
2015/6/26 10:29,3.3,3,3.4,3,4.5,4
2015/6/26 10:30,3.2,3,3.3,3,3.7,3
2015/6/26 10:31,3.3,3,3.3,3,4.7,3
2015/6/26 10:32,3.2,3,3.3,3,3.7,3
2015/6/26 10:33,3.1,3,3.2,3,5,3
2015/6/26 10:34,3,3,3.1,3,4.5,3
2015/6/26 10:35,3,3,3,3,4.2,4
2015/6/26 10:36,3,3,3,3,5.4,4
2015/6/26 10:37,3.1,3,3.1,3,5.6,3
2015/6/26 10:38,3.2,3,3.2,3,5.4,4
2015/6/26 10:39,3.2,3,3.2,3,5.6,3
2015/6/26 10:40,3.3,3,3.3,3,4.9,4
2015/6/26 10:41,3.3,3,3.3,3,5.8,4
2015/6/26 10:42,3.4,3,3.4,3,4.3,3
2015/6/26 10:43,3.5,3,3.5,3,4.9,3
2015/6/26 10:44,3.5,3,3.5,3,4.5,4
2015/6/26 10:45,3.5,3,3.5,3,4.8,2
2015/6/26 10:46,3.4,3,3.5,3,4.3,2
2015/6/26 10:47,3.3,3,3.4,3,5.2,3
2015/6/26 10:48,3.1,3,3.3,3,2.9,3
2015/6/26 10:49,3,3,3.1,3,3.7,2
2015/6/26 10:50,2.9,3,3,3,3.8,3
2015/6/26 10:51,3,3,3,3,5,3
2015/6/26 10:52,3,3,3,3,5,3
2015/6/26 10:53,2.8,3,3,3,3.2,3
2015/6/26 10:54,2.7,2,2.8,3,2.5,2
2015/6/26 10:55,2.5,2,2.7,3,2.9,2
2015/6/26 10:56,2.5,2,2.5,3,4.1,2
2015/6/26 10:57,2.3,2,2.4,3,2.7,16
2015/6/26 10:58,2.4,2,2.4,3,4.4,4
2015/6/26 10:59,2.5,2,2.5,3,5.1,3
2015/6/26 11:00,2.7,2,2.7,3,5.2,3
2015/6/26 11:01,2.5,2,2.7,3,3.8,2
2015/6/26 11:02,2.5,2,2.5,3,4.2,2
2015/6/26 11:03,2.5,2,2.5,3,3.6,3
2015/6/26 11:04,2.5,2,2.5,2,4.7,4
2015/6/26 11:05,2.5,2,2.5,2,3.1,2
2015/6/26 11:06,2.5,2,2.5,2,4.1,3
2015/6/26 11:07,2.5,2,2.5,2,4.1,3
2015/6/26 11:08,2.5,2,2.5,2,4.5,3
2015/6/26 11:09,2.5,2,2.6,2,4.2,3
2015/6/26 11:10,2.4,2,2.5,2,4.7,2
2015/6/26 11:11,2.4,2,2.4,2,4.1,2
2015/6/26 11:12,2.4,2,2.5,2,4.7,2
2015/6/26 11:13,2.5,2,2.5,2,4.1,4
2015/6/26 11:14,2.6,2,2.6,2,4.7,3
2015/6/26 11:15,2.6,2,2.6,2,3.7,3
2015/6/26 11:16,2.6,2,2.7,2,5.2,2
2015/6/26 11:17,2.7,2,2.7,2,4.1,3
2015/6/26 11:18,2.8,2,2.8,2,4.7,3
2015/6/26 11:19,2.8,2,2.8,2,6.2,3
2015/6/26 11:20,2.8,2,2.9,2,3.9,2
2015/6/26 11:21,2.9,2,2.9,2,5,3
2015/6/26 11:22,3,2,3,2,5.8,3
2015/6/26 11:23,3.1,2,3.1,2,4.8,3
2015/6/26 11:24,3.2,2,3.2,2,5.6,3
2015/6/26 11:25,3.4,2,3.4,2,5.1,2
2015/6/26 11:26,3.4,3,3.4,2,4.3,3
2015/6/26 11:27,3.4,3,3.4,2,3.8,3
2015/6/26 11:28,3.3,3,3.4,2,3.5,2
2015/6/26 11:29,3.2,3,3.3,2,5.5,3
2015/6/26 11:30,3.3,3,3.3,2,5,2
2015/6/26 11:31,3.3,3,3.3,2,4.9,3
2015/6/26 11:32,3.1,2,3.3,2,3.9,2
2015/6/26 11:33,3.1,2,3.1,2,5.2,3
2015/6/26 11:34,3,2,3.1,2,4.9,2
2015/6/26 11:35,3,2,3,2,4.8,4
2015/6/26 11:36,3,2,3,3,5.6,3
2015/6/26 11:37,3.1,2,3.1,3,4.8,3
2015/6/26 11:38,3.3,2,3.3,3,5,3
2015/6/26 11:39,3.3,2,3.3,3,5.7,3
2015/6/26 11:40,3.1,2,3.3,3,3.7,2
2015/6/26 11:41,3.2,2,3.2,2,5.7,3
2015/6/26 11:42,3.3,2,3.3,2,5,3
2015/6/26 11:43,3.3,2,3.3,2,5.1,1
2015/6/26 11:44,3.4,2,3.4,2,5.7,4
2015/6/26 11:45,3.5,2,3.5,2,5.1,3
2015/6/26 11:46,3.5,2,3.5,2,6.2,3
2015/6/26 11:47,3.4,2,3.5,2,5.2,2
2015/6/26 11:48,3.3,2,3.4,2,6.4,2
2015/6/26 11:49,3.3,2,3.4,2,5,3
2015/6/26 11:50,3.3,2,3.3,2,4.2,2